#timestamp,LO_Frequency,Hit,StdDev 
1505818815.5,286047002.1,N
1505818835.3,286047005.8,Y
1505818855.1,286047002.8,P
1505818875.9,286047000.9,N
1505818895.7,286047000.4,N
1505818915.5,286046997.5,N
1505818935.4,286046997.1,N
1505818955.2,286046996.3,N
1505818975.0,286046998.2,N
1505818975.9,286046998.2,N
1505818995.7,286047001.2,N
1505819015.6,286046999.7,N
1505819035.4,286047001.8,N
1505819055.2,286047003.7,N
1505819075.1,286047002.7,N
1505819076.0,286047002.7,N
1505819095.8,286046999.0,N
1505819115.6,286046995.3,N
1505819135.5,286046999.2,N
1505819155.3,286047000.8,N
1505819175.1,286047001.2,N
1505819195.9,286047001.0,N
1505819215.7,286047000.3,N
1505819235.5,286046999.7,N
1505819255.4,286046999.8,N
1505819275.2,286047001.1,N
1505819295.0,286047002.8,N
1505819295.9,286047002.8,N
1505819315.8,286046997.2,N
1505819335.6,286046997.3,N
1505819355.4,286046994.1,N
1505819375.2,286046996.8,N
1505819395.1,286046993.3,N
1505819396.0,286046993.3,N
1505819415.8,286046992.3,N
1505819435.6,286046988.7,Y
1505819455.5,286046990.4,P
1505819475.3,286046989.5,N
1505819495.1,286046991.3,N
1505819515.9,286046994.9,N
1505819535.7,286046994.9,N
1505819555.5,286046997.2,N
1505819575.4,286046997.6,N
1505819595.2,286046995.3,N
1505819615.0,286046996.2,N
1505819615.9,286046996.2,N
1505819635.8,286046997.9,N
1505819655.6,286046996.6,N
1505819675.4,286047001.2,N
1505819695.3,286047002.6,N
1505819715.1,286047001.6,N
1505819716.0,286047001.6,N
1505819735.8,286047004.0,N
1505819755.7,286047000.0,N
1505819775.5,286047001.3,N
1505819795.3,286047003.2,N
1505819815.1,286046999.1,N
1505819835.9,286046997.9,N
1505819855.7,286046998.9,N
1505819875.5,286046995.1,N
1505819895.4,286046996.5,N
1505819915.2,286046998.7,N
1505819935.0,286046997.1,N
1505819935.9,286046997.1,N
1505819955.8,286046993.3,N
1505819975.6,286046991.8,N
1505819995.4,286046993.5,N
1505820015.3,286046995.5,N
1505820035.1,286047001.0,N
1505820036.0,286047001.0,N
1505820055.8,286046996.6,N
1505820075.7,286046999.4,N
1505820095.5,286046999.6,N
1505820115.3,286046997.9,N
1505820135.1,286047000.1,N
1505820155.9,286046999.4,N
1505820175.7,286046999.6,N
1505820195.5,286046997.9,N
1505820215.4,286046994.7,N
1505820235.2,286046993.7,N
1505820255.0,286046993.3,N
1505820255.9,286046993.3,N
1505820275.8,286046999.9,N
1505820295.6,286046999.0,N
1505820315.4,286046999.3,N
1505820335.3,286047000.5,N
1505820355.1,286046996.2,N
1505820375.8,286046996.4,N
1505820395.7,286046998.0,N
1505820415.5,286046997.4,N
1505820435.3,286046993.8,N
1505820455.2,286046990.1,Y
1505820475.9,286046995.6,P
1505820495.7,286046999.0,N
1505820515.6,286047002.5,N
1505820535.4,286047000.3,N
1505820555.2,286047001.5,N
1505820575.1,286047000.1,N
1505820576.0,286047000.1,N
1505820595.8,286047003.4,N
1505820615.6,286047001.5,N
1505820635.5,286047004.0,N
1505820655.3,286047002.7,N
1505820675.1,286047006.7,N
1505820695.8,286047002.5,N
1505820715.7,286047002.0,N
1505820735.5,286046996.7,N
1505820755.3,286046996.6,N
1505820775.2,286046995.7,N
1505820795.9,286046996.1,N
1505820815.7,286046994.7,N
1505820835.6,286046995.5,N
1505820855.4,286046997.2,N
1505820875.2,286046999.2,N
1505820895.1,286046997.8,N
1505820896.0,286046997.8,N
1505820915.8,286046995.8,N
1505820935.6,286046995.8,N
1505820955.5,286046993.9,N
1505820975.3,286046994.7,N
1505820995.1,286046998.6,N
1505821015.8,286046999.9,N
1505821035.7,286047000.6,N
1505821055.5,286046995.1,N
1505821075.3,286046991.0,N
1505821095.2,286046988.5,Y
1505821115.0,286046990.6,P
1505821115.9,286046990.6,N
1505821135.7,286046992.1,N
1505821155.6,286046989.2,Y
1505821175.4,286046997.4,P
1505821195.2,286046997.3,N
1505821215.1,286046996.1,N
1505821216.0,286046996.1,N
1505821235.8,286046993.3,Y
1505821255.6,286046999.5,P
1505821275.5,286047004.2,N
1505821295.3,286047003.7,N
1505821315.1,286047004.1,N
1505821335.9,286047003.8,N
1505821355.7,286047005.2,N
1505821375.5,286047009.2,N
1505821395.4,286047008.4,N
1505821415.2,286047008.9,N
1505821435.0,286047012.3,Y
1505821435.9,286047012.3,P
1505821455.8,286047005.9,N
1505821475.6,286047002.9,N
1505821495.4,286047003.4,N
1505821515.3,286047000.5,N
1505821535.1,286046997.3,N
1505821536.0,286046997.3,N
1505821555.8,286046999.3,N
1505821575.7,286046999.6,N
1505821595.5,286046995.1,N
1505821615.3,286046997.6,N
1505821635.1,286046997.3,N
1505821655.9,286046997.0,N
1505821675.7,286046998.7,N
1505821695.5,286046999.0,N
1505821715.4,286047000.3,N
1505821735.2,286046995.0,N
1505821755.0,286046997.8,N
1505821755.9,286046997.8,N
1505821775.8,286046997.4,N
1505821795.6,286046995.8,N
1505821815.4,286046996.3,N
1505821835.3,286046993.6,N
1505821855.1,286046994.0,N
1505821856.0,286046994.0,N
1505821875.8,286046998.8,N
1505821895.7,286046996.6,N
1505821915.5,286046997.7,N
1505821935.3,286046997.9,N
1505821955.2,286046994.9,N
1505821975.9,286046997.9,N
1505821995.7,286046996.6,N
1505822015.5,286046995.5,N
1505822035.4,286046999.5,N
1505822055.2,286046998.5,N
1505822075.0,286046996.5,N
1505822075.9,286046996.5,N
1505822095.8,286046996.0,N
1505822115.6,286046993.4,Y
1505822135.4,286046993.7,P
1505822155.3,286046997.6,N
1505822175.1,286046996.5,N
1505822195.8,286046996.7,N
1505822215.7,286046997.8,N
1505822235.5,286046995.5,Y
1505822255.3,286046995.1,P
1505822275.2,286047000.1,N
1505822295.9,286047001.0,N
1505822315.7,286047000.7,N
1505822335.6,286047003.2,N
1505822355.4,286047003.5,N
1505822375.2,286047002.6,N
1505822395.1,286047003.5,N
1505822396.0,286047003.5,N
